Terminal Aerodrome Forecast
Issued by NWS Houston/Galveston, TX

Home | Current Version | Previous Version | Text Only | Print | Product List | Glossary On
Versions: 1 2 3 4 5 6 7 8 9 10 11 12 13 14 15 16 17 18 19 20 21 22 23 24 25 26 27 28 29 30 31 32 33 34 35 36 37 38 39
000
FTUS44 KHGX 181734
TAFCLL
TAF
KCLL 181734Z 1818/1918 05003KT 6SM HZ OVC007
      TEMPO 1818/1821 OVC012
     FM182100 04004KT P6SM OVC012
     FM190400 03007KT 4SM SHRA BR OVC006=

USA.gov is the U.S. government's official web portal to all federal, state and local government web resources and services.